FW0782 Weather Reports


time (UTC)temp
C
wind
direction
speed
KPH
gust
KPH
rain 1hr
cm
rain 24hr
cm
rain mn
cm
humidity
%
barometer
mb
20260507210219 12 28 1.6 3.2 0.00 0.00 0.00 79 1017.2
20260507210019 12 28 0.0 1.6 0.00 0.00 0.00 79 1016.9
20260507205219 12 28 1.6 4.8 0.00 0.00 0.00 79 1017.2
20260507205019 12 29 3.2 6.4 0.00 0.00 0.00 79 1016.9
20260507204719 12 28 1.6 4.8 0.00 0.00 0.00 79 1017.2
20260507204019 12 29 0.0 1.6 0.00 0.00 0.00 79 1016.9
20260507203719 12 28 4.8 4.8 0.00 0.00 0.00 79 1017.2
20260507194219 12 28 1.6 4.8 0.00 0.00 0.00 77 1016.8
20260507194019 12 29 1.6 6.4 0.00 0.00 0.00 77 1016.6
20260507193720 12 21 8.0 12.9 0.00 0.00 0.00 77 1016.7
20260507190219 12 343 1.6 4.8 0.00 0.00 0.00 76 1016.6
20260507162019 13 346 1.6 6.4 0.00 0.00 0.00 64 1016.2
20260507161719 13 347 4.8 11.3 0.00 0.00 0.00 64 1016.6
20260507154019 13 12 3.2 8.0 0.00 0.00 0.00 64 1016.1
20260507153719 13 11 4.8 9.7 0.00 0.00 0.00 64 1016.4
20260507153219 13 15 4.8 8.0 0.00 0.00 0.00 64 1016.4
20260507152719 13 13 4.8 11.3 0.00 0.00 0.00 64 1016.4
20260507152219 13 0 4.8 14.5 0.00 0.00 0.00 65 1016.4
20260507133219 15 12 8.0 16.1 0.00 0.00 0.00 65 1016.7
20260507133019 15 53 8.0 16.1 0.00 0.00 0.00 65 1016.4
20260507132718 16 59 9.7 16.1 0.00 0.00 0.00 67 1016.6
20260507132018 16 6 8.0 19.3 0.00 0.00 0.00 67 1016.3
20260507131218 15 356 9.7 14.5 0.00 0.00 0.00 67 1016.6
20260507130718 15 7 4.8 14.5 0.00 0.00 0.00 68 1016.6
20260507130219 15 45 11.3 16.1 0.00 0.00 0.00 65 1016.6
20260507130019 15 58 9.7 17.7 0.00 0.00 0.00 64 1016.2
20260507123019 15 71 11.3 17.7 0.00 0.00 0.00 60 1016.1
20260507122718 16 9 4.8 11.3 0.00 0.00 0.00 60 1016.4
20260507122218 16 3 6.4 11.3 0.00 0.00 0.00 61 1016.4
20260507121719 15 353 6.4 14.5 0.00 0.00 0.00 62 1016.4
20260507121218 15 24 4.8 14.5 0.00 0.00 0.00 61 1016.5
20260507110219 15 70 6.4 12.9 0.00 0.00 0.00 58 1016.6
20260507110018 15 68 8.0 12.9 0.00 0.00 0.00 59 1016.4
20260507105718 15 65 6.4 12.9 0.00 0.00 0.00 62 1016.6
20260507105218 15 58 9.7 16.1 0.00 0.00 0.00 63 1016.7
20260507105018 15 59 4.8 11.3 0.00 0.00 0.00 64 1016.4
20260507104718 15 59 4.8 9.7 0.00 0.00 0.00 62 1016.7
20260507104218 15 59 9.7 19.3 0.00 0.00 0.00 59 1016.8
20260507104018 15 61 9.7 19.3 0.00 0.00 0.00 59 1016.4
20260507103718 15 54 4.8 12.9 0.00 0.00 0.00 58 1016.7
20260507080218 11 101 8.0 19.3 0.00 0.00 0.00 75 1016.2
20260507080019 11 100 9.7 17.7 0.00 0.00 0.00 75 1015.9
20260507075718 12 88 9.7 14.5 0.00 0.00 0.00 76 1016.2
20260507075218 11 82 8.0 12.9 0.00 0.00 0.00 77 1016.2
20260507075019 11 85 8.0 12.9 0.00 0.00 0.00 77 1015.9
20260507074718 11 98 9.7 14.5 0.00 0.00 0.00 76 1016.1
20260507074219 11 74 6.4 14.5 0.00 0.00 0.00 77 1016.1
20260507074019 11 68 6.4 11.3 0.00 0.00 0.00 76 1015.8
20260507073718 11 69 6.4 14.5 0.00 0.00 0.00 77 1016.1
20260507073219 11 63 9.7 14.5 0.00 0.00 0.00 78 1016.1
20260507073019 11 69 8.0 12.9 0.00 0.00 0.00 77 1015.9